Location: Haliburton Scout Reserve
(45.0900°N, 78.3200°W)
Time: 12:53:24
(UTC-05:00)

N. Korean satellite - Pass Details

Date: 30 November 2021
Orbit: 447 x 491 km, 97.3° (Epoch: 23 January)

Event Time Altitude Azimuth Distance (km) Brightness Sun altitude
Rises 04:53:57 0° 23° (NNE) 2,474 10.4 -27.0°
Reaches altitude 10° 04:56:13 10° 36° (NE) 1,590 9.5 -26.6°
Maximum altitude 04:59:09 26° 96° (E) 913 8.6 -26.1°
Drops below altitude 10° 05:02:02 10° 155° (SSE) 1,569 9.5 -25.6°
Sets 05:04:16 0° 168° (SSE) 2,434 10.3 -25.2°
